DLH32Q EDDF-EGCC

Flight info

Callsign DLH32Q
Flight time 1h 26m
Altitude 34000
Route OBOKA3M/25C OBOKA Z29 TORNU DCT GALSO Q63 ERING L179 LAM UN57 WELIN T420 ELVOS
Aircraft A320/M-SDE3FGHIRWY/LB1

Departure

Time 2026-04-18 09:52
Airport Frankfurt Main Airport (EDDF)

Arrival

Time 2026-04-18 11:18
Airport Manchester Airport (EGCC)
Time Latitude Longitude Altitude Speed Heading
2026-04-18 08:47 50.04704 8.56846 356 ft 0 kts 294°
2026-04-18 08:49 50.04802 8.56916 361 ft 0 kts 294°
2026-04-18 09:19 50.04802 8.56917 361 ft 0 kts 294°
2026-04-18 09:31 50.04792 8.56952 360 ft 4 kts 293°
2026-04-18 09:32 50.04781 8.56989 361 ft 4 kts 282°
2026-04-18 09:32 50.04784 8.57023 356 ft 4 kts 222°
2026-04-18 09:32 50.04797 8.57037 361 ft 0 kts 204°
2026-04-18 09:32 50.04781 8.57025 360 ft 4 kts 204°
2026-04-18 09:33 50.04769 8.57017 362 ft 0 kts 205°
2026-04-18 09:41 50.04766 8.57014 361 ft 2 kts 205°
2026-04-18 09:41 50.04737 8.56994 363 ft 6 kts 205°
2026-04-18 09:41 50.04692 8.56961 360 ft 9 kts 205°
2026-04-18 09:41 50.04625 8.56916 358 ft 12 kts 197°
2026-04-18 09:42 50.04538 8.56885 359 ft 13 kts 192°
2026-04-18 09:42 50.04443 8.56852 366 ft 15 kts 191°
2026-04-18 09:42 50.04357 8.56832 360 ft 11 kts 191°
2026-04-18 09:42 50.04343 8.56827 360 ft 0 kts 193°
2026-04-18 09:43 50.04314 8.56816 360 ft 6 kts 188°
2026-04-18 09:43 50.04280 8.56844 361 ft 5 kts 130°
2026-04-18 09:43 50.04272 8.56893 360 ft 5 kts 87°
2026-04-18 09:44 50.04283 8.56938 359 ft 4 kts 65°
2026-04-18 09:44 50.04294 8.56976 363 ft 3 kts 69°
2026-04-18 09:44 50.04300 8.57003 363 ft 2 kts 69°
2026-04-18 09:44 50.04310 8.57044 361 ft 5 kts 70°
2026-04-18 09:45 50.04321 8.57091 367 ft 5 kts 70°
2026-04-18 09:45 50.04335 8.57152 361 ft 8 kts 70°
2026-04-18 09:45 50.04357 8.57246 365 ft 9 kts 69°
2026-04-18 09:45 50.04378 8.57330 362 ft 8 kts 70°
2026-04-18 09:46 50.04395 8.57403 365 ft 7 kts 70°
2026-04-18 09:46 50.04405 8.57445 363 ft 6 kts 70°
2026-04-18 09:46 50.04418 8.57499 365 ft 5 kts 70°
2026-04-18 09:46 50.04427 8.57539 362 ft 3 kts 70°
2026-04-18 09:47 50.04431 8.57556 365 ft 1 kts 70°
2026-04-18 09:47 50.04437 8.57579 365 ft 6 kts 70°
2026-04-18 09:47 50.04463 8.57690 367 ft 13 kts 70°
2026-04-18 09:47 50.04499 8.57839 367 ft 16 kts 69°
2026-04-18 09:48 50.04542 8.58020 363 ft 20 kts 69°
2026-04-18 09:48 50.04594 8.58235 368 ft 21 kts 70°
2026-04-18 09:48 50.04645 8.58444 374 ft 20 kts 69°
2026-04-18 09:48 50.04624 8.58575 369 ft 12 kts 159°
2026-04-18 09:49 50.04603 8.58584 369 ft 0 kts 164°
2026-04-18 09:50 50.04584 8.58593 370 ft 5 kts 162°
2026-04-18 09:50 50.04547 8.58613 372 ft 4 kts 160°
2026-04-18 09:50 50.04516 8.58627 371 ft 7 kts 172°
2026-04-18 09:50 50.04478 8.58568 370 ft 9 kts 255°
2026-04-18 09:51 50.04432 8.58346 369 ft 48 kts 250°
2026-04-18 09:51 50.04225 8.57489 370 ft 117 kts 249°
2026-04-18 09:51 50.03874 8.56023 364 ft 170 kts 250°
2026-04-18 09:51 50.03448 8.54243 843 ft 181 kts 249°
2026-04-18 09:52 50.02985 8.52353 1469 ft 193 kts 249°
2026-04-18 09:52 50.02484 8.50370 2115 ft 201 kts 247°
2026-04-18 09:52 50.01610 8.48682 2768 ft 207 kts 210°
2026-04-18 09:52 50.00249 8.47917 3473 ft 210 kts 193°
2026-04-18 09:53 49.98809 8.47482 4188 ft 212 kts 190°
2026-04-18 09:53 49.97348 8.47082 4869 ft 215 kts 191°
2026-04-18 09:53 49.95891 8.46643 5626 ft 220 kts 192°
2026-04-18 09:53 49.94324 8.46080 6031 ft 243 kts 194°
2026-04-18 09:54 49.92675 8.45323 6869 ft 247 kts 204°
2026-04-18 09:54 49.91242 8.43884 7803 ft 248 kts 224°
2026-04-18 09:54 49.90208 8.41779 8684 ft 251 kts 239°
2026-04-18 09:54 49.89318 8.39434 9575 ft 254 kts 243°
2026-04-18 09:55 49.88732 8.36825 10388 ft 260 kts 259°
2026-04-18 09:55 49.88634 8.33917 10727 ft 284 kts 274°
2026-04-18 09:55 49.88814 8.30738 11020 ft 308 kts 275°
2026-04-18 09:55 49.89212 8.27407 11573 ft 320 kts 288°
2026-04-18 09:56 49.90185 8.24279 12361 ft 325 kts 303°
2026-04-18 09:56 49.91522 8.21438 13193 ft 328 kts 305°
2026-04-18 09:56 49.92882 8.18587 14061 ft 329 kts 305°
2026-04-18 09:56 49.94317 8.15811 14845 ft 331 kts 312°
2026-04-18 09:57 49.96041 8.13399 15563 ft 335 kts 317°
2026-04-18 09:57 49.97817 8.11022 16260 ft 339 kts 317°
2026-04-18 09:57 49.99611 8.08627 16945 ft 342 kts 316°
2026-04-18 09:57 50.01428 8.06199 17623 ft 346 kts 316°
2026-04-18 09:58 50.03260 8.03749 18291 ft 350 kts 316°
2026-04-18 09:58 50.05112 8.01272 18887 ft 353 kts 316°
2026-04-18 09:58 50.06984 7.98770 19460 ft 356 kts 316°
2026-04-18 09:58 50.08874 7.96239 20035 ft 360 kts 316°
2026-04-18 09:59 50.10779 7.93683 20612 ft 363 kts 316°
2026-04-18 09:59 50.12699 7.91101 21182 ft 367 kts 316°
2026-04-18 09:59 50.14640 7.88486 21745 ft 370 kts 316°
2026-04-18 10:00 50.18575 7.83170 22853 ft 378 kts 316°
2026-04-18 10:00 50.20539 7.80507 23419 ft 382 kts 315°
2026-04-18 10:00 50.22550 7.77779 23969 ft 384 kts 315°
2026-04-18 10:00 50.24604 7.75081 24436 ft 389 kts 320°
2026-04-18 10:01 50.26916 7.72838 24896 ft 396 kts 329°
2026-04-18 10:01 50.29416 7.71098 25346 ft 400 kts 333°
2026-04-18 10:01 50.32007 7.69340 25790 ft 402 kts 332°
2026-04-18 10:01 50.34547 7.67610 26221 ft 405 kts 332°
2026-04-18 10:02 50.37080 7.65877 26633 ft 407 kts 332°
2026-04-18 10:02 50.39712 7.64066 27065 ft 410 kts 332°
2026-04-18 10:02 50.42332 7.62259 27470 ft 412 kts 332°
2026-04-18 10:02 50.44968 7.60440 27867 ft 415 kts 332°
2026-04-18 10:03 50.47618 7.58614 28260 ft 418 kts 332°
2026-04-18 10:03 50.50287 7.56772 28647 ft 420 kts 332°
2026-04-18 10:03 50.52970 7.54920 29027 ft 422 kts 332°
2026-04-18 10:03 50.55643 7.52990 29396 ft 423 kts 328°
2026-04-18 10:04 50.58147 7.50587 29758 ft 422 kts 323°
2026-04-18 10:04 50.60615 7.48062 30116 ft 424 kts 323°
2026-04-18 10:04 50.63099 7.45521 30464 ft 426 kts 322°
2026-04-18 10:04 50.65587 7.42971 30782 ft 428 kts 322°
2026-04-18 10:05 50.68090 7.40401 31054 ft 430 kts 322°
2026-04-18 10:05 50.70606 7.37806 31325 ft 432 kts 321°
2026-04-18 10:05 50.72937 7.34865 31577 ft 428 kts 311°
2026-04-18 10:05 50.74926 7.31396 31828 ft 425 kts 303°
2026-04-18 10:06 50.76536 7.27515 32079 ft 422 kts 294°
2026-04-18 10:06 50.77885 7.23397 32339 ft 422 kts 293°
2026-04-18 10:06 50.79227 7.19275 32686 ft 422 kts 293°
2026-04-18 10:06 50.80571 7.15154 33026 ft 421 kts 293°
2026-04-18 10:07 50.81904 7.11054 33375 ft 420 kts 293°
2026-04-18 10:07 50.83236 7.06948 33724 ft 419 kts 292°
2026-04-18 10:07 50.84564 7.02841 34073 ft 419 kts 292°
2026-04-18 10:07 50.85887 6.98739 34203 ft 416 kts 292°
2026-04-18 10:08 50.87182 6.94732 34220 ft 403 kts 292°
2026-04-18 10:08 50.89685 6.86969 34212 ft 396 kts 292°
2026-04-18 10:09 50.92179 6.79186 34214 ft 395 kts 291°
2026-04-18 10:09 50.94656 6.71410 34220 ft 395 kts 291°
2026-04-18 10:10 50.97138 6.63623 34224 ft 395 kts 291°
2026-04-18 10:10 50.99618 6.55839 34214 ft 395 kts 291°
2026-04-18 10:11 51.02089 6.48036 34208 ft 395 kts 291°
2026-04-18 10:11 51.04549 6.40232 34204 ft 395 kts 291°
2026-04-18 10:12 51.07007 6.32419 34203 ft 395 kts 291°
2026-04-18 10:12 51.09461 6.24606 34200 ft 395 kts 291°
2026-04-18 10:13 51.11911 6.16782 34226 ft 395 kts 291°
2026-04-18 10:13 51.14179 6.08874 34227 ft 388 kts 282°
2026-04-18 10:14 51.15543 6.00619 34224 ft 385 kts 280°
2026-04-18 10:14 51.16874 5.92383 34221 ft 384 kts 280°
2026-04-18 10:15 51.18204 5.84153 34218 ft 383 kts 280°
2026-04-18 10:15 51.19766 5.76061 34254 ft 385 kts 284°
2026-04-18 10:16 51.21612 5.68037 34233 ft 384 kts 285°
2026-04-18 10:16 51.23440 5.60085 34224 ft 380 kts 284°
2026-04-18 10:17 51.25194 5.52132 34219 ft 380 kts 283°
2026-04-18 10:17 51.26906 5.44161 34213 ft 380 kts 283°
2026-04-18 10:18 51.28606 5.36184 34213 ft 380 kts 283°
2026-04-18 10:18 51.30312 5.28201 34219 ft 380 kts 283°
2026-04-18 10:19 51.32025 5.20224 34241 ft 379 kts 283°
2026-04-18 10:19 51.33733 5.12252 34235 ft 379 kts 283°
2026-04-18 10:20 51.35429 5.04285 34234 ft 378 kts 283°
2026-04-18 10:20 51.37114 4.96319 34231 ft 378 kts 283°
2026-04-18 10:21 51.38793 4.88350 34232 ft 378 kts 283°
2026-04-18 10:21 51.40461 4.80371 34223 ft 377 kts 283°
2026-04-18 10:22 51.42125 4.72400 34238 ft 377 kts 283°
2026-04-18 10:22 51.43803 4.64430 34236 ft 377 kts 283°
2026-04-18 10:23 51.45457 4.56455 34228 ft 377 kts 282°
2026-04-18 10:23 51.47099 4.48483 34229 ft 377 kts 282°
2026-04-18 10:24 51.48738 4.40495 34227 ft 377 kts 282°
2026-04-18 10:24 51.50384 4.32505 34250 ft 377 kts 282°
2026-04-18 10:25 51.52043 4.24372 34459 ft 389 kts 282°
2026-04-18 10:25 51.52883 4.20233 34667 ft 391 kts 282°
2026-04-18 10:25 51.53724 4.16072 34922 ft 392 kts 282°
2026-04-18 10:25 51.54554 4.11963 35178 ft 393 kts 282°
2026-04-18 10:26 51.55402 4.07790 35443 ft 393 kts 282°
2026-04-18 10:26 51.56251 4.03610 35696 ft 394 kts 282°
2026-04-18 10:26 51.57112 3.99367 35950 ft 394 kts 282°
2026-04-18 10:26 51.57955 3.95178 36159 ft 395 kts 282°
2026-04-18 10:27 51.58784 3.91026 36221 ft 395 kts 282°
2026-04-18 10:27 51.60456 3.82601 36227 ft 396 kts 282°
2026-04-18 10:28 51.62134 3.74154 36214 ft 397 kts 282°
2026-04-18 10:28 51.63811 3.65692 36216 ft 397 kts 282°
2026-04-18 10:29 51.65488 3.57225 36218 ft 397 kts 282°
2026-04-18 10:29 51.67159 3.48749 36219 ft 397 kts 282°
2026-04-18 10:30 51.68814 3.40271 36224 ft 397 kts 282°
2026-04-18 10:30 51.70463 3.31777 36234 ft 397 kts 282°
2026-04-18 10:31 51.72110 3.23261 36238 ft 398 kts 282°
2026-04-18 10:31 51.72955 3.14601 36232 ft 388 kts 264°
2026-04-18 10:32 51.72309 3.06024 36233 ft 385 kts 259°
2026-04-18 10:32 51.71568 2.97458 36229 ft 386 kts 259°
2026-04-18 10:33 51.70827 2.88890 36247 ft 386 kts 259°
2026-04-18 10:33 51.70072 2.80318 36240 ft 386 kts 259°
2026-04-18 10:34 51.69308 2.71745 36237 ft 387 kts 259°
2026-04-18 10:34 51.68671 2.64613 36237 ft 387 kts 259°
2026-04-18 10:35 51.67776 2.54633 36238 ft 387 kts 259°
2026-04-18 10:35 51.67005 2.46050 36235 ft 387 kts 259°
2026-04-18 10:36 51.66348 2.38861 36262 ft 387 kts 259°
2026-04-18 10:36 51.65424 2.28882 36249 ft 388 kts 259°
2026-04-18 10:37 51.64751 2.21677 36243 ft 388 kts 259°
2026-04-18 10:37 51.63949 2.13143 36239 ft 388 kts 259°
2026-04-18 10:38 51.63148 2.04532 36238 ft 389 kts 259°
2026-04-18 10:38 51.62351 1.95929 36243 ft 389 kts 259°
2026-04-18 10:39 51.61550 1.87326 36259 ft 389 kts 259°
2026-04-18 10:39 51.60741 1.78721 36254 ft 389 kts 259°
2026-04-18 10:40 51.59923 1.70117 36251 ft 389 kts 259°
2026-04-18 10:40 51.59169 1.61496 36255 ft 391 kts 265°
2026-04-18 10:41 51.59445 1.52732 36245 ft 393 kts 271°
2026-04-18 10:41 51.59829 1.43961 36257 ft 393 kts 270°
2026-04-18 10:42 51.60192 1.35188 36253 ft 393 kts 270°
2026-04-18 10:42 51.60551 1.26402 36244 ft 393 kts 270°
2026-04-18 10:43 51.60913 1.17627 36247 ft 393 kts 270°
2026-04-18 10:43 51.61266 1.08843 36246 ft 393 kts 270°
2026-04-18 10:44 51.61612 1.00067 36243 ft 393 kts 270°
2026-04-18 10:44 51.61950 0.91279 36246 ft 393 kts 270°
2026-04-18 10:45 51.62283 0.82502 36240 ft 393 kts 270°
2026-04-18 10:45 51.62604 0.73718 36235 ft 393 kts 270°
2026-04-18 10:46 51.62921 0.64993 36232 ft 393 kts 270°
2026-04-18 10:46 51.63235 0.56219 36230 ft 393 kts 270°
2026-04-18 10:47 51.63541 0.47433 36241 ft 393 kts 270°
2026-04-18 10:47 51.63838 0.38659 36239 ft 393 kts 270°
2026-04-18 10:48 51.64130 0.29878 36249 ft 393 kts 270°
2026-04-18 10:48 51.64499 0.21106 36248 ft 395 kts 276°
2026-04-18 10:48 51.65213 0.16824 36247 ft 400 kts 287°
2026-04-18 10:49 51.66469 0.12792 36246 ft 407 kts 298°
2026-04-18 10:49 51.70272 0.05875 36238 ft 416 kts 308°
2026-04-18 10:50 51.74340 -0.00768 36205 ft 416 kts 308°
2026-04-18 10:50 51.78389 -0.07454 36191 ft 416 kts 308°
2026-04-18 10:51 51.82432 -0.14162 36213 ft 417 kts 308°
2026-04-18 10:51 51.86480 -0.20871 36242 ft 417 kts 308°
2026-04-18 10:52 51.90527 -0.27595 36235 ft 417 kts 308°
2026-04-18 10:52 51.94567 -0.34331 36231 ft 417 kts 308°
2026-04-18 10:53 51.98604 -0.41075 36226 ft 417 kts 308°
2026-04-18 10:53 52.02640 -0.47838 36219 ft 417 kts 308°
2026-04-18 10:54 52.06684 -0.54638 36209 ft 420 kts 308°
2026-04-18 10:54 52.08712 -0.58062 36068 ft 422 kts 308°
2026-04-18 10:54 52.10766 -0.61539 34936 ft 432 kts 307°
2026-04-18 10:54 52.12868 -0.65104 33776 ft 439 kts 307°
2026-04-18 10:55 52.14985 -0.68685 32928 ft 436 kts 307°
2026-04-18 10:55 52.17064 -0.72187 32488 ft 426 kts 307°
2026-04-18 10:55 52.19107 -0.75631 31911 ft 419 kts 307°
2026-04-18 10:55 52.21113 -0.79021 31365 ft 413 kts 307°
2026-04-18 10:56 52.23091 -0.82378 30810 ft 407 kts 307°
2026-04-18 10:56 52.25193 -0.85499 30219 ft 411 kts 315°
2026-04-18 10:56 52.27597 -0.88072 29604 ft 412 kts 321°
2026-04-18 10:56 52.30032 -0.90484 29047 ft 407 kts 321°
2026-04-18 10:57 52.32441 -0.92872 28490 ft 402 kts 321°
2026-04-18 10:57 52.34786 -0.95199 27945 ft 397 kts 320°
2026-04-18 10:57 52.37134 -0.97534 27424 ft 392 kts 320°
2026-04-18 10:57 52.39452 -0.99843 26921 ft 388 kts 320°
2026-04-18 10:58 52.41746 -1.02134 26408 ft 384 kts 320°
2026-04-18 10:58 52.44007 -1.04401 25945 ft 380 kts 320°
2026-04-18 10:58 52.46250 -1.06653 25482 ft 375 kts 320°
2026-04-18 10:58 52.48463 -1.08878 25023 ft 372 kts 320°
2026-04-18 10:59 52.50654 -1.11085 24579 ft 368 kts 320°
2026-04-18 10:59 52.52826 -1.13278 24156 ft 365 kts 320°
2026-04-18 10:59 52.54982 -1.15452 23642 ft 363 kts 320°
2026-04-18 10:59 52.57125 -1.17608 23160 ft 359 kts 320°
2026-04-18 11:00 52.59240 -1.19741 22692 ft 355 kts 320°
2026-04-18 11:00 52.61331 -1.21853 22231 ft 351 kts 320°
2026-04-18 11:00 52.63396 -1.23944 21775 ft 347 kts 320°
2026-04-18 11:00 52.65446 -1.26023 21314 ft 344 kts 320°
2026-04-18 11:01 52.67478 -1.28084 20851 ft 342 kts 320°
2026-04-18 11:01 52.69499 -1.30134 20382 ft 340 kts 321°
2026-04-18 11:01 52.71508 -1.32178 19941 ft 339 kts 321°
2026-04-18 11:02 52.75512 -1.36261 19034 ft 337 kts 321°
2026-04-18 11:02 52.77500 -1.38290 18616 ft 336 kts 321°
2026-04-18 11:02 52.79482 -1.40313 18139 ft 333 kts 321°
2026-04-18 11:02 52.81444 -1.42317 17722 ft 329 kts 322°
2026-04-18 11:03 52.83386 -1.44297 17309 ft 326 kts 322°
2026-04-18 11:03 52.85311 -1.46266 16895 ft 324 kts 322°
2026-04-18 11:03 52.87221 -1.48226 16484 ft 322 kts 322°
2026-04-18 11:03 52.89113 -1.50169 16076 ft 320 kts 323°
2026-04-18 11:04 52.91003 -1.52110 15666 ft 318 kts 323°
2026-04-18 11:04 52.92881 -1.54043 15271 ft 317 kts 323°
2026-04-18 11:04 52.94750 -1.55968 14864 ft 316 kts 324°
2026-04-18 11:04 52.96613 -1.57889 14459 ft 314 kts 324°
2026-04-18 11:05 52.98466 -1.59802 14065 ft 313 kts 324°
2026-04-18 11:05 53.00307 -1.61707 13643 ft 311 kts 324°
2026-04-18 11:05 53.02139 -1.63603 13238 ft 309 kts 325°
2026-04-18 11:05 53.03935 -1.65464 12850 ft 307 kts 325°
2026-04-18 11:06 53.05649 -1.67605 12452 ft 302 kts 314°
2026-04-18 11:06 53.07024 -1.70144 12071 ft 299 kts 308°
2026-04-18 11:06 53.08367 -1.72761 11766 ft 294 kts 308°
2026-04-18 11:06 53.09673 -1.75283 11627 ft 282 kts 308°
2026-04-18 11:07 53.10944 -1.77729 11362 ft 277 kts 308°
2026-04-18 11:07 53.12194 -1.80142 11106 ft 274 kts 308°
2026-04-18 11:07 53.13448 -1.82575 10745 ft 272 kts 308°
2026-04-18 11:07 53.14677 -1.84967 10355 ft 272 kts 308°
2026-04-18 11:08 53.15907 -1.87364 9937 ft 272 kts 308°
2026-04-18 11:08 53.17118 -1.89724 9532 ft 270 kts 308°
2026-04-18 11:08 53.18334 -1.92097 9133 ft 268 kts 308°
2026-04-18 11:08 53.19541 -1.94454 8737 ft 266 kts 308°
2026-04-18 11:09 53.20737 -1.96788 8409 ft 261 kts 308°
2026-04-18 11:09 53.21892 -1.99040 8275 ft 250 kts 308°
2026-04-18 11:09 53.23091 -2.01055 8063 ft 244 kts 321°
2026-04-18 11:09 53.24608 -2.02305 7908 ft 243 kts 340°
2026-04-18 11:10 53.26303 -2.02636 7624 ft 249 kts 358°
2026-04-18 11:10 53.28038 -2.02424 7223 ft 251 kts 359°
2026-04-18 11:10 53.29775 -2.02206 6847 ft 251 kts 359°
2026-04-18 11:10 53.31507 -2.01991 6552 ft 247 kts 359°
2026-04-18 11:11 53.33230 -2.01781 6107 ft 247 kts 359°
2026-04-18 11:11 53.34949 -2.01569 5643 ft 247 kts 359°
2026-04-18 11:11 53.36656 -2.01358 5169 ft 248 kts 359°
2026-04-18 11:11 53.38368 -2.01147 4809 ft 245 kts 359°
2026-04-18 11:12 53.40057 -2.00935 4523 ft 238 kts 358°
2026-04-18 11:12 53.41657 -2.00729 4237 ft 225 kts 359°
2026-04-18 11:12 53.43199 -2.00535 3800 ft 219 kts 357°
2026-04-18 11:12 53.44602 -2.00949 3517 ft 193 kts 324°
2026-04-18 11:13 53.45528 -2.02438 3458 ft 178 kts 295°
2026-04-18 11:13 53.45837 -2.04359 3366 ft 169 kts 269°
2026-04-18 11:13 53.45546 -2.06258 3219 ft 171 kts 243°
2026-04-18 11:13 53.44818 -2.07865 3011 ft 174 kts 235°
2026-04-18 11:14 53.44055 -2.09450 2801 ft 174 kts 235°
2026-04-18 11:14 53.43307 -2.11006 2600 ft 169 kts 235°
2026-04-18 11:14 53.42583 -2.12513 2353 ft 163 kts 235°
2026-04-18 11:14 53.41902 -2.13929 2133 ft 147 kts 236°
2026-04-18 11:15 53.41288 -2.15204 1962 ft 134 kts 236°
2026-04-18 11:15 53.40723 -2.16382 1773 ft 127 kts 237°
2026-04-18 11:15 53.40174 -2.17525 1587 ft 125 kts 236°
2026-04-18 11:15 53.39629 -2.18661 1416 ft 125 kts 237°
2026-04-18 11:16 53.39088 -2.19785 1250 ft 123 kts 238°
2026-04-18 11:16 53.38547 -2.20910 1074 ft 125 kts 236°
2026-04-18 11:16 53.38006 -2.22033 907 ft 123 kts 237°
2026-04-18 11:16 53.37470 -2.23149 763 ft 124 kts 236°
2026-04-18 11:17 53.36934 -2.24276 540 ft 125 kts 234°
2026-04-18 11:17 53.36381 -2.25410 361 ft 134 kts 234°
2026-04-18 11:17 53.35760 -2.26705 269 ft 136 kts 230°
2026-04-18 11:17 53.35271 -2.27716 238 ft 87 kts 231°
2026-04-18 11:18 53.34999 -2.28286 231 ft 42 kts 235°
2026-04-18 11:18 53.34944 -2.28632 229 ft 14 kts 264°
2026-04-18 11:18 53.34984 -2.28761 227 ft 12 kts 349°
2026-04-18 11:18 53.35042 -2.28690 228 ft 9 kts 51°
2026-04-18 11:19 53.35076 -2.28620 229 ft 7 kts 51°
2026-04-18 11:19 53.35106 -2.28558 228 ft 8 kts 50°
2026-04-18 11:19 53.35144 -2.28480 227 ft 9 kts 51°
2026-04-18 11:19 53.35177 -2.28410 229 ft 5 kts 51°
2026-04-18 11:20 53.35192 -2.28380 231 ft 2 kts 51°
2026-04-18 11:20 53.35194 -2.28376 231 ft 0 kts 51°
2026-04-18 11:20 53.35196 -2.28370 230 ft 3 kts 51°
2026-04-18 11:21 53.35204 -2.28353 231 ft 0 kts 51°
2026-04-18 11:21 53.35206 -2.28351 231 ft 1 kts 51°
2026-04-18 11:21 53.35214 -2.28334 232 ft 4 kts 51°
2026-04-18 11:22 53.35243 -2.28274 232 ft 5 kts 51°
2026-04-18 11:22 53.35258 -2.28245 232 ft 5 kts 50°
2026-04-18 11:22 53.35281 -2.28202 232 ft 2 kts 47°
2026-04-18 11:22 53.35292 -2.28182 233 ft 4 kts 47°
2026-04-18 11:23 53.35315 -2.28143 235 ft 6 kts 43°
2026-04-18 11:23 53.35339 -2.28107 236 ft 8 kts 43°
2026-04-18 11:23 53.35374 -2.28052 237 ft 7 kts 43°
2026-04-18 11:23 53.35419 -2.27977 237 ft 9 kts 45°
2026-04-18 11:24 53.35462 -2.27922 239 ft 6 kts 22°
2026-04-18 11:24 53.35507 -2.27915 239 ft 11 kts
2026-04-18 11:24 53.35605 -2.27898 240 ft 13 kts
2026-04-18 11:24 53.35680 -2.27885 244 ft 9 kts
2026-04-18 11:25 53.35756 -2.27873 248 ft 12 kts
2026-04-18 11:25 53.35851 -2.27856 253 ft 15 kts
2026-04-18 11:25 53.35956 -2.27857 255 ft 15 kts 338°
2026-04-18 11:25 53.36037 -2.27969 255 ft 15 kts 317°
2026-04-18 11:26 53.36122 -2.28096 255 ft 16 kts 317°
2026-04-18 11:26 53.36215 -2.28132 255 ft 14 kts 21°
2026-04-18 11:26 53.36288 -2.28186 255 ft 13 kts 309°
2026-04-18 11:26 53.36357 -2.28305 255 ft 15 kts 315°
2026-04-18 11:27 53.36417 -2.28458 255 ft 17 kts 288°
2026-04-18 11:27 53.36493 -2.28610 255 ft 18 kts 315°
2026-04-18 11:27 53.36569 -2.28742 255 ft 15 kts 311°
2026-04-18 11:27 53.36625 -2.28880 255 ft 15 kts 310°
2026-04-18 11:28 53.36701 -2.29007 255 ft 16 kts 314°
2026-04-18 11:28 53.36761 -2.29086 255 ft 7 kts 351°
2026-04-18 11:28 53.36805 -2.29054 255 ft 7 kts 31°
2026-04-18 11:28 53.36843 -2.29019 255 ft 6 kts 29°
2026-04-18 11:29 53.36873 -2.28977 255 ft 5 kts 48°
2026-04-18 11:29 53.36897 -2.28936 255 ft 4 kts 45°
2026-04-18 11:29 53.36917 -2.28902 255 ft 4 kts 45°
2026-04-18 11:29 53.36928 -2.28847 255 ft 5 kts 113°
2026-04-18 11:30 53.36903 -2.28809 255 ft 4 kts 137°
2026-04-18 11:30 53.36893 -2.28792 255 ft 2 kts 135°
2026-04-18 11:30 53.36891 -2.28789 255 ft 0 kts 135°